NSZ3294 EKCH-LYTV

Flight info

Callsign NSZ3294
Flight time 2h 11m
Altitude 37000
Route SALLO M44 KOGIM M725 KOBUS DCT HDO DCT EVIKU DCT ODNEM DCT BERVA DCT XOMBA DCT BABIT DCT TADAM DCT TORTO DCT POD
Aircraft B738/M-SDE2E3FGHIRWXY/LB1

Departure

Time 2026-04-23 12:35
Airport Copenhagen Kastrup Airport (EKCH)

Arrival

Time 2026-04-23 14:47
Airport Tivat Airport (LYTV)
Time Latitude Longitude Altitude Speed Heading
2026-04-23 12:14 55.62699 12.64168 16 ft 0 kts 33°
2026-04-23 12:23 55.62690 12.64158 16 ft 3 kts 34°
2026-04-23 12:23 55.62675 12.64140 16 ft 3 kts 37°
2026-04-23 12:23 55.62658 12.64114 16 ft 3 kts 50°
2026-04-23 12:24 55.62647 12.64081 18 ft 3 kts 89°
2026-04-23 12:24 55.62653 12.64051 17 ft 3 kts 122°
2026-04-23 12:24 55.62666 12.64016 19 ft 3 kts 123°
2026-04-23 12:24 55.62674 12.63994 18 ft 0 kts 123°
2026-04-23 12:28 55.62672 12.63999 19 ft 2 kts 123°
2026-04-23 12:28 55.62647 12.64066 19 ft 11 kts 123°
2026-04-23 12:28 55.62600 12.64196 16 ft 13 kts 123°
2026-04-23 12:28 55.62551 12.64329 17 ft 13 kts 123°
2026-04-23 12:29 55.62495 12.64468 16 ft 15 kts 138°
2026-04-23 12:29 55.62394 12.64454 16 ft 15 kts 194°
2026-04-23 12:29 55.62296 12.64410 16 ft 14 kts 194°
2026-04-23 12:29 55.62197 12.64409 14 ft 15 kts 169°
2026-04-23 12:30 55.62090 12.64445 18 ft 15 kts 169°
2026-04-23 12:30 55.61987 12.64479 16 ft 15 kts 169°
2026-04-23 12:30 55.61886 12.64513 17 ft 16 kts 170°
2026-04-23 12:30 55.61770 12.64549 17 ft 18 kts 170°
2026-04-23 12:31 55.61643 12.64530 16 ft 19 kts 212°
2026-04-23 12:31 55.61534 12.64408 18 ft 18 kts 213°
2026-04-23 12:31 55.61426 12.64281 16 ft 19 kts 212°
2026-04-23 12:31 55.61307 12.64145 16 ft 21 kts 213°
2026-04-23 12:32 55.61186 12.64005 16 ft 21 kts 213°
2026-04-23 12:32 55.61067 12.63871 17 ft 20 kts 213°
2026-04-23 12:32 55.60953 12.63740 17 ft 19 kts 214°
2026-04-23 12:32 55.60843 12.63610 16 ft 19 kts 213°
2026-04-23 12:33 55.60736 12.63488 17 ft 18 kts 213°
2026-04-23 12:33 55.60635 12.63364 16 ft 17 kts 219°
2026-04-23 12:33 55.60544 12.63229 16 ft 17 kts 212°
2026-04-23 12:33 55.60464 12.63260 16 ft 9 kts 128°
2026-04-23 12:34 55.60435 12.63323 16 ft 11 kts 131°
2026-04-23 12:34 55.60405 12.63445 17 ft 12 kts 63°
2026-04-23 12:34 55.60424 12.63483 18 ft 0 kts 41°
2026-04-23 12:34 55.60446 12.63517 16 ft 16 kts 40°
2026-04-23 12:35 55.60711 12.63925 18 ft 84 kts 41°
2026-04-23 12:35 55.61307 12.64842 17 ft 140 kts 39°
2026-04-23 12:35 55.62140 12.66070 324 ft 162 kts 36°
2026-04-23 12:35 55.62998 12.67384 1080 ft 166 kts 35°
2026-04-23 12:36 55.63877 12.68750 1838 ft 168 kts 34°
2026-04-23 12:36 55.64807 12.70178 2178 ft 189 kts 36°
2026-04-23 12:36 55.65841 12.71741 2539 ft 201 kts 36°
2026-04-23 12:36 55.66779 12.73740 2686 ft 234 kts 65°
2026-04-23 12:37 55.66852 12.76753 3083 ft 260 kts 100°
2026-04-23 12:37 55.66069 12.79676 3774 ft 271 kts 126°
2026-04-23 12:37 55.64552 12.81793 4242 ft 284 kts 152°
2026-04-23 12:37 55.62762 12.83246 4975 ft 285 kts 156°
2026-04-23 12:38 55.60322 12.85081 5760 ft 290 kts 156°
2026-04-23 12:38 55.59060 12.86028 6177 ft 293 kts 156°
2026-04-23 12:38 55.57185 12.87451 6825 ft 295 kts 156°
2026-04-23 12:38 55.55310 12.88893 7443 ft 299 kts 156°
2026-04-23 12:39 55.53395 12.90381 8066 ft 303 kts 156°
2026-04-23 12:39 55.51459 12.91894 8727 ft 306 kts 156°
2026-04-23 12:39 55.49505 12.93430 9407 ft 309 kts 155°
2026-04-23 12:39 55.47529 12.94990 10075 ft 314 kts 155°
2026-04-23 12:40 55.45512 12.96583 10537 ft 325 kts 155°
2026-04-23 12:40 55.43378 12.98267 10671 ft 347 kts 155°
2026-04-23 12:40 55.41126 13.00048 11017 ft 360 kts 155°
2026-04-23 12:40 55.38822 13.01869 11630 ft 365 kts 155°
2026-04-23 12:41 55.36496 13.03705 12318 ft 367 kts 155°
2026-04-23 12:41 55.34153 13.05552 12983 ft 371 kts 155°
2026-04-23 12:41 55.31785 13.07415 13645 ft 375 kts 155°
2026-04-23 12:41 55.29386 13.09301 14273 ft 380 kts 155°
2026-04-23 12:42 55.26962 13.11203 14915 ft 383 kts 155°
2026-04-23 12:42 55.24518 13.13119 15574 ft 386 kts 154°
2026-04-23 12:42 55.22054 13.15048 16208 ft 390 kts 154°
2026-04-23 12:42 55.19565 13.16994 16834 ft 394 kts 154°
2026-04-23 12:43 55.17044 13.18962 17454 ft 398 kts 154°
2026-04-23 12:43 55.14504 13.20943 18078 ft 402 kts 154°
2026-04-23 12:43 55.11938 13.22941 18660 ft 406 kts 154°
2026-04-23 12:43 55.09347 13.24955 19192 ft 409 kts 154°
2026-04-23 12:44 55.06737 13.26981 19735 ft 412 kts 154°
2026-04-23 12:44 55.04101 13.29024 20271 ft 416 kts 154°
2026-04-23 12:44 55.01448 13.31078 20796 ft 419 kts 154°
2026-04-23 12:44 54.98772 13.33147 21307 ft 423 kts 154°
2026-04-23 12:45 54.96073 13.35231 21812 ft 426 kts 154°
2026-04-23 12:45 54.93387 13.37294 22302 ft 429 kts 155°
2026-04-23 12:45 54.90546 13.38994 22791 ft 435 kts 165°
2026-04-23 12:45 54.87553 13.39937 23276 ft 439 kts 171°
2026-04-23 12:46 54.84520 13.40689 23759 ft 442 kts 171°
2026-04-23 12:46 54.81457 13.41433 24165 ft 445 kts 171°
2026-04-23 12:46 54.78382 13.42229 24565 ft 448 kts 170°
2026-04-23 12:46 54.75293 13.43060 24952 ft 451 kts 170°
2026-04-23 12:47 54.72183 13.43908 25360 ft 453 kts 170°
2026-04-23 12:47 54.69063 13.44758 25760 ft 455 kts 170°
2026-04-23 12:47 54.65927 13.45608 26151 ft 457 kts 170°
2026-04-23 12:47 54.62770 13.46458 26528 ft 460 kts 170°
2026-04-23 12:48 54.59641 13.47296 26899 ft 462 kts 169°
2026-04-23 12:48 54.56455 13.48145 27263 ft 465 kts 169°
2026-04-23 12:48 54.53252 13.48996 27624 ft 467 kts 169°
2026-04-23 12:48 54.50028 13.49850 27975 ft 469 kts 169°
2026-04-23 12:49 54.46789 13.50707 28323 ft 472 kts 169°
2026-04-23 12:49 54.43540 13.51565 28663 ft 474 kts 169°
2026-04-23 12:49 54.40273 13.52427 28999 ft 476 kts 169°
2026-04-23 12:49 54.36991 13.53292 29333 ft 478 kts 169°
2026-04-23 12:50 54.33690 13.54160 29654 ft 480 kts 169°
2026-04-23 12:50 54.30376 13.55030 29961 ft 483 kts 169°
2026-04-23 12:50 54.27048 13.55902 30257 ft 485 kts 169°
2026-04-23 12:50 54.23711 13.56776 30505 ft 487 kts 169°
2026-04-23 12:51 54.20360 13.57651 30774 ft 488 kts 169°
2026-04-23 12:51 54.16994 13.58529 31029 ft 489 kts 169°
2026-04-23 12:51 54.13623 13.59406 31283 ft 491 kts 169°
2026-04-23 12:51 54.10247 13.60284 31577 ft 491 kts 169°
2026-04-23 12:52 54.06877 13.61158 31937 ft 489 kts 169°
2026-04-23 12:52 54.03522 13.62026 32321 ft 487 kts 169°
2026-04-23 12:52 54.00176 13.62891 32659 ft 486 kts 169°
2026-04-23 12:52 53.96879 13.63742 32947 ft 486 kts 169°
2026-04-23 12:53 53.93529 13.64606 33253 ft 486 kts 169°
2026-04-23 12:53 53.90191 13.65466 33579 ft 484 kts 169°
2026-04-23 12:53 53.86852 13.66324 33913 ft 483 kts 169°
2026-04-23 12:53 53.83532 13.67176 34204 ft 483 kts 169°
2026-04-23 12:54 53.80204 13.68029 34452 ft 482 kts 169°
2026-04-23 12:54 53.76887 13.68878 34716 ft 481 kts 169°
2026-04-23 12:54 53.73579 13.69723 34991 ft 480 kts 169°
2026-04-23 12:54 53.70276 13.70565 35251 ft 479 kts 169°
2026-04-23 12:55 53.66980 13.71404 35495 ft 479 kts 169°
2026-04-23 12:55 53.63688 13.72241 35728 ft 478 kts 168°
2026-04-23 12:55 53.60402 13.73075 35965 ft 477 kts 168°
2026-04-23 12:55 53.57125 13.73905 36213 ft 476 kts 168°
2026-04-23 12:56 53.53852 13.74733 36464 ft 475 kts 168°
2026-04-23 12:56 53.50588 13.75557 36715 ft 474 kts 168°
2026-04-23 12:56 53.47326 13.76380 36914 ft 474 kts 168°
2026-04-23 12:56 53.44069 13.77201 37121 ft 473 kts 168°
2026-04-23 12:57 53.37537 13.78843 37209 ft 476 kts 168°
2026-04-23 12:57 53.31050 13.80467 37209 ft 473 kts 168°
2026-04-23 12:58 53.24558 13.82087 37214 ft 470 kts 168°
2026-04-23 12:58 53.18104 13.83693 37218 ft 468 kts 168°
2026-04-23 12:59 53.11671 13.85290 37215 ft 467 kts 168°
2026-04-23 12:59 53.05241 13.86882 37215 ft 467 kts 168°
2026-04-23 13:00 52.98807 13.88470 37222 ft 468 kts 168°
2026-04-23 13:00 52.92351 13.90058 37221 ft 469 kts 168°
2026-04-23 13:01 52.85876 13.91646 37222 ft 471 kts 168°
2026-04-23 13:01 52.79374 13.93236 37216 ft 473 kts 168°
2026-04-23 13:02 52.72838 13.94829 37219 ft 475 kts 168°
2026-04-23 13:02 52.66323 13.96412 37229 ft 477 kts 168°
2026-04-23 13:03 52.59737 13.98007 37226 ft 478 kts 168°
2026-04-23 13:03 52.53146 13.99598 37226 ft 478 kts 168°
2026-04-23 13:04 52.46555 14.01184 37220 ft 478 kts 168°
2026-04-23 13:04 52.39982 14.02762 37223 ft 477 kts 168°
2026-04-23 13:05 52.33461 14.04322 37225 ft 476 kts 168°
2026-04-23 13:05 52.26870 14.05895 37212 ft 475 kts 168°
2026-04-23 13:06 52.17107 14.08215 37217 ft 474 kts 167°
2026-04-23 13:07 52.10590 14.09759 37218 ft 473 kts 167°
2026-04-23 13:07 52.04078 14.11297 37219 ft 472 kts 167°
2026-04-23 13:08 51.97575 14.12829 37221 ft 472 kts 167°
2026-04-23 13:08 51.91064 14.14358 37217 ft 472 kts 167°
2026-04-23 13:09 51.84556 14.15881 37213 ft 473 kts 167°
2026-04-23 13:09 51.78084 14.17392 37211 ft 473 kts 167°
2026-04-23 13:10 51.71555 14.18912 37214 ft 474 kts 167°
2026-04-23 13:10 51.65016 14.20429 37212 ft 475 kts 167°
2026-04-23 13:11 51.58466 14.21945 37209 ft 476 kts 167°
2026-04-23 13:11 51.51905 14.23458 37208 ft 476 kts 167°
2026-04-23 13:12 51.45337 14.24969 37206 ft 477 kts 167°
2026-04-23 13:12 51.38762 14.26477 37206 ft 477 kts 167°
2026-04-23 13:13 51.32185 14.27981 37209 ft 477 kts 167°
2026-04-23 13:13 51.25652 14.29470 37205 ft 477 kts 167°
2026-04-23 13:14 51.19081 14.30964 37206 ft 477 kts 167°
2026-04-23 13:14 51.12504 14.32456 37208 ft 477 kts 167°
2026-04-23 13:15 51.06241 14.35291 37210 ft 461 kts 146°
2026-04-23 13:15 51.01153 14.41117 37210 ft 446 kts 131°
2026-04-23 13:16 50.96532 14.47699 37202 ft 447 kts 131°
2026-04-23 13:16 50.91883 14.54262 37199 ft 447 kts 131°
2026-04-23 13:17 50.87204 14.60786 37188 ft 448 kts 131°
2026-04-23 13:17 50.82511 14.67286 37199 ft 448 kts 131°
2026-04-23 13:18 50.77833 14.73743 37196 ft 449 kts 132°
2026-04-23 13:18 50.73116 14.80236 37182 ft 450 kts 132°
2026-04-23 13:19 50.68389 14.86727 37192 ft 451 kts 132°
2026-04-23 13:19 50.63651 14.93216 37183 ft 451 kts 132°
2026-04-23 13:22 50.60677 14.97280 37195 ft 452 kts 132°
2026-04-23 13:22 50.55925 15.03757 37179 ft 452 kts 132°
2026-04-23 13:23 50.51166 15.10224 37180 ft 452 kts 132°
2026-04-23 13:23 50.46398 15.16688 37172 ft 452 kts 132°
2026-04-23 13:24 50.41627 15.23138 37166 ft 452 kts 132°
2026-04-23 13:24 50.36888 15.29527 37166 ft 452 kts 132°
2026-04-23 13:25 50.32116 15.35942 37164 ft 452 kts 132°
2026-04-23 13:25 50.27347 15.42336 37159 ft 451 kts 132°
2026-04-23 13:26 50.22581 15.48708 37160 ft 451 kts 132°
2026-04-23 13:26 50.17809 15.55073 37156 ft 450 kts 132°
2026-04-23 13:27 50.13043 15.61411 37162 ft 450 kts 132°
2026-04-23 13:27 50.08280 15.67729 37161 ft 450 kts 132°
2026-04-23 13:28 50.03508 15.74042 37158 ft 450 kts 132°
2026-04-23 13:28 49.98733 15.80341 37165 ft 450 kts 133°
2026-04-23 13:29 49.93975 15.86601 37157 ft 451 kts 133°
2026-04-23 13:29 49.89181 15.92892 37156 ft 452 kts 133°
2026-04-23 13:30 49.84373 15.99183 37151 ft 453 kts 133°
2026-04-23 13:30 49.79553 16.05472 37141 ft 454 kts 133°
2026-04-23 13:31 49.74720 16.11762 37128 ft 454 kts 133°
2026-04-23 13:31 49.70698 16.16983 37120 ft 454 kts 133°
2026-04-23 13:32 49.65857 16.23252 37115 ft 454 kts 133°
2026-04-23 13:32 49.61015 16.29505 37126 ft 454 kts 133°
2026-04-23 13:33 49.56170 16.35746 37113 ft 454 kts 134°
2026-04-23 13:33 49.51324 16.41972 37114 ft 454 kts 134°
2026-04-23 13:34 49.46472 16.48190 37112 ft 454 kts 134°
2026-04-23 13:34 49.41614 16.54399 37108 ft 455 kts 134°
2026-04-23 13:35 49.36746 16.60602 37096 ft 455 kts 134°
2026-04-23 13:35 49.31872 16.66796 37104 ft 455 kts 134°
2026-04-23 13:36 49.26995 16.72979 37111 ft 455 kts 134°
2026-04-23 13:36 49.22118 16.79145 37110 ft 455 kts 135°
2026-04-23 13:37 49.17237 16.85301 37109 ft 455 kts 135°
2026-04-23 13:37 49.12352 16.91445 37110 ft 455 kts 135°
2026-04-23 13:38 49.07461 16.97580 37101 ft 455 kts 135°
2026-04-23 13:38 49.02568 17.03702 37093 ft 455 kts 135°
2026-04-23 13:39 48.97668 17.09817 37097 ft 455 kts 135°
2026-04-23 13:39 48.92767 17.15915 37100 ft 455 kts 136°
2026-04-23 13:40 48.87858 17.22010 37098 ft 456 kts 136°
2026-04-23 13:40 48.82946 17.28092 37100 ft 456 kts 136°
2026-04-23 13:41 48.78060 17.34125 37091 ft 456 kts 136°
2026-04-23 13:41 48.73135 17.40192 37089 ft 456 kts 136°
2026-04-23 13:42 48.68204 17.46253 37083 ft 456 kts 136°
2026-04-23 13:42 48.63258 17.52283 37077 ft 458 kts 140°
2026-04-23 13:43 48.57625 17.56901 37089 ft 465 kts 154°
2026-04-23 13:43 48.51603 17.60499 37077 ft 466 kts 155°
2026-04-23 13:44 48.45575 17.64082 37079 ft 465 kts 155°
2026-04-23 13:44 48.39571 17.67717 37080 ft 465 kts 155°
2026-04-23 13:45 48.33579 17.71369 37079 ft 464 kts 155°
2026-04-23 13:45 48.27606 17.75007 37080 ft 463 kts 155°
2026-04-23 13:46 48.21638 17.78629 37076 ft 462 kts 155°
2026-04-23 13:46 48.15688 17.82230 37074 ft 461 kts 155°
2026-04-23 13:47 48.09756 17.85810 37075 ft 459 kts 155°
2026-04-23 13:47 48.03833 17.89376 37074 ft 458 kts 155°
2026-04-23 13:48 47.97932 17.92971 37076 ft 457 kts 154°
2026-04-23 13:48 47.92064 17.96646 37073 ft 457 kts 154°
2026-04-23 13:49 47.86235 18.00298 37075 ft 458 kts 154°
2026-04-23 13:49 47.80352 18.03962 37076 ft 459 kts 154°
2026-04-23 13:50 47.74450 18.07620 37077 ft 460 kts 155°
2026-04-23 13:50 47.68536 18.11274 37069 ft 461 kts 155°
2026-04-23 13:51 47.62600 18.14932 37073 ft 462 kts 155°
2026-04-23 13:51 47.56660 18.18585 37087 ft 463 kts 155°
2026-04-23 13:52 47.50710 18.22234 37081 ft 463 kts 155°
2026-04-23 13:52 47.44744 18.25885 37078 ft 464 kts 155°
2026-04-23 13:53 47.38774 18.29529 37075 ft 464 kts 154°
2026-04-23 13:53 47.32837 18.33144 37072 ft 464 kts 155°
2026-04-23 13:54 47.26868 18.36769 37064 ft 464 kts 155°
2026-04-23 13:54 47.20907 18.40380 37058 ft 463 kts 155°
2026-04-23 13:55 47.14964 18.43972 37061 ft 461 kts 155°
2026-04-23 13:55 47.09025 18.47554 37058 ft 460 kts 155°
2026-04-23 13:56 47.03104 18.51115 37054 ft 459 kts 155°
2026-04-23 13:56 46.97202 18.54657 37053 ft 458 kts 155°
2026-04-23 13:57 46.91303 18.58189 37049 ft 458 kts 155°
2026-04-23 13:57 46.85415 18.61705 37053 ft 457 kts 155°
2026-04-23 13:58 46.79529 18.65212 37052 ft 456 kts 155°
2026-04-23 13:58 46.73688 18.68685 37058 ft 456 kts 155°
2026-04-23 13:59 46.67800 18.72176 37051 ft 457 kts 155°
2026-04-23 13:59 46.61912 18.75660 37051 ft 457 kts 155°
2026-04-23 14:00 46.56971 18.78576 37049 ft 457 kts 155°
2026-04-23 14:00 46.50114 18.82614 37046 ft 458 kts 155°
2026-04-23 14:01 46.44209 18.86083 37046 ft 458 kts 155°
2026-04-23 14:01 46.38308 18.89542 37042 ft 458 kts 155°
2026-04-23 14:02 46.32400 18.92997 37052 ft 458 kts 155°
2026-04-23 14:02 46.26482 18.96449 37045 ft 458 kts 155°
2026-04-23 14:03 46.20611 18.99866 37049 ft 458 kts 155°
2026-04-23 14:03 46.14694 19.03302 37047 ft 458 kts 155°
2026-04-23 14:04 46.08779 19.06728 37053 ft 458 kts 155°
2026-04-23 14:04 46.02865 19.10146 37047 ft 458 kts 155°
2026-04-23 14:05 45.96947 19.13558 37050 ft 458 kts 155°
2026-04-23 14:05 45.91032 19.16961 37057 ft 458 kts 155°
2026-04-23 14:06 45.85121 19.20354 37047 ft 458 kts 155°
2026-04-23 14:06 45.79205 19.23742 37059 ft 458 kts 155°
2026-04-23 14:07 45.73289 19.27123 37042 ft 458 kts 155°
2026-04-23 14:07 45.64417 19.32177 37044 ft 457 kts 155°
2026-04-23 14:08 45.58441 19.35324 37033 ft 461 kts 164°
2026-04-23 14:08 45.52047 19.36108 37062 ft 464 kts 179°
2026-04-23 14:09 45.45628 19.35797 37054 ft 465 kts 180°
2026-04-23 14:09 45.39160 19.35485 37054 ft 465 kts 180°
2026-04-23 14:10 45.32682 19.35229 37051 ft 465 kts 179°
2026-04-23 14:10 45.26207 19.35001 37057 ft 465 kts 179°
2026-04-23 14:11 45.19728 19.34780 37060 ft 466 kts 179°
2026-04-23 14:11 45.13247 19.34558 37059 ft 466 kts 179°
2026-04-23 14:12 45.06764 19.34335 37064 ft 466 kts 179°
2026-04-23 14:12 45.00285 19.34112 37069 ft 466 kts 179°
2026-04-23 14:13 44.93804 19.33889 37069 ft 466 kts 179°
2026-04-23 14:13 44.87327 19.33666 37064 ft 466 kts 179°
2026-04-23 14:14 44.80893 19.33447 37073 ft 465 kts 179°
2026-04-23 14:14 44.74424 19.33226 37077 ft 465 kts 179°
2026-04-23 14:15 44.67958 19.33006 37079 ft 465 kts 179°
2026-04-23 14:15 44.61497 19.32786 37073 ft 464 kts 179°
2026-04-23 14:16 44.55041 19.32567 37088 ft 464 kts 179°
2026-04-23 14:16 44.48586 19.32349 37079 ft 464 kts 179°
2026-04-23 14:17 44.42128 19.32132 37090 ft 464 kts 179°
2026-04-23 14:17 44.38884 19.32023 36826 ft 468 kts 179°
2026-04-23 14:17 44.35642 19.31914 36509 ft 463 kts 178°
2026-04-23 14:18 44.32437 19.31804 36109 ft 458 kts 178°
2026-04-23 14:18 44.29264 19.31695 35717 ft 454 kts 178°
2026-04-23 14:18 44.26118 19.31589 35315 ft 451 kts 178°
2026-04-23 14:18 44.22995 19.31483 34931 ft 447 kts 178°
2026-04-23 14:19 44.19899 19.31379 34535 ft 443 kts 178°
2026-04-23 14:19 44.16829 19.31277 34157 ft 440 kts 178°
2026-04-23 14:19 44.13778 19.31175 33706 ft 437 kts 177°
2026-04-23 14:19 44.10753 19.31074 33287 ft 433 kts 177°
2026-04-23 14:20 44.07757 19.30974 32905 ft 429 kts 177°
2026-04-23 14:20 44.04784 19.30876 32510 ft 426 kts 177°
2026-04-23 14:20 44.02828 19.30811 32259 ft 424 kts 177°
2026-04-23 14:20 43.99888 19.30713 31874 ft 421 kts 177°
2026-04-23 14:21 43.96974 19.30616 31524 ft 417 kts 177°
2026-04-23 14:21 43.94079 19.30520 31136 ft 415 kts 177°
2026-04-23 14:21 43.91207 19.30425 30781 ft 412 kts 177°
2026-04-23 14:21 43.88348 19.30330 30419 ft 409 kts 177°
2026-04-23 14:22 43.84594 19.30207 29908 ft 406 kts 177°
2026-04-23 14:22 43.82691 19.30144 29633 ft 404 kts 177°
2026-04-23 14:22 43.79893 19.30051 29230 ft 400 kts 177°
2026-04-23 14:22 43.77122 19.29959 28861 ft 396 kts 176°
2026-04-23 14:23 43.74378 19.29866 28498 ft 392 kts 176°
2026-04-23 14:23 43.71669 19.29775 28125 ft 388 kts 176°
2026-04-23 14:23 43.68979 19.29688 27761 ft 386 kts 176°
2026-04-23 14:23 43.66335 19.29603 27387 ft 384 kts 176°
2026-04-23 14:24 43.63675 19.29516 27022 ft 381 kts 176°
2026-04-23 14:24 43.61026 19.29430 26667 ft 379 kts 176°
2026-04-23 14:24 43.58393 19.29345 26302 ft 377 kts 176°
2026-04-23 14:24 43.55778 19.29259 25939 ft 375 kts 176°
2026-04-23 14:25 43.53174 19.29170 25592 ft 373 kts 176°
2026-04-23 14:25 43.50592 19.29085 25227 ft 368 kts 176°
2026-04-23 14:25 43.48043 19.29003 24919 ft 365 kts 176°
2026-04-23 14:25 43.45501 19.28922 24557 ft 365 kts 176°
2026-04-23 14:26 43.42963 19.28841 24193 ft 365 kts 176°
2026-04-23 14:26 43.40428 19.28760 23855 ft 364 kts 176°
2026-04-23 14:26 43.37899 19.28678 23466 ft 363 kts 176°
2026-04-23 14:26 43.35378 19.28597 23085 ft 362 kts 176°
2026-04-23 14:27 43.32864 19.28515 22712 ft 360 kts 176°
2026-04-23 14:27 43.30365 19.28433 22361 ft 358 kts 176°
2026-04-23 14:27 43.27879 19.28352 22004 ft 356 kts 176°
2026-04-23 14:27 43.25408 19.28271 21671 ft 354 kts 176°
2026-04-23 14:28 43.22948 19.28192 21333 ft 352 kts 176°
2026-04-23 14:28 43.20505 19.28114 20996 ft 350 kts 176°
2026-04-23 14:28 43.18076 19.28036 20661 ft 349 kts 177°
2026-04-23 14:28 43.15688 19.27958 20344 ft 347 kts 177°
2026-04-23 14:29 43.13282 19.27880 20016 ft 346 kts 177°
2026-04-23 14:29 43.10872 19.27803 19678 ft 345 kts 177°
2026-04-23 14:29 43.08473 19.27726 19344 ft 344 kts 177°
2026-04-23 14:29 43.06084 19.27649 19008 ft 343 kts 178°
2026-04-23 14:30 43.03695 19.27573 18675 ft 342 kts 178°
2026-04-23 14:30 43.01320 19.27364 18268 ft 346 kts 189°
2026-04-23 14:30 42.98978 19.26534 17856 ft 347 kts 193°
2026-04-23 14:30 42.96660 19.25625 17505 ft 345 kts 194°
2026-04-23 14:31 42.94363 19.24715 17154 ft 342 kts 194°
2026-04-23 14:31 42.92084 19.23817 16829 ft 339 kts 194°
2026-04-23 14:31 42.89851 19.22946 16499 ft 338 kts 194°
2026-04-23 14:31 42.87591 19.22073 16179 ft 336 kts 194°
2026-04-23 14:32 42.85345 19.21208 15844 ft 335 kts 194°
2026-04-23 14:32 42.83113 19.20355 15536 ft 332 kts 194°
2026-04-23 14:32 42.80900 19.19512 15198 ft 329 kts 194°
2026-04-23 14:32 42.78696 19.18674 14863 ft 328 kts 194°
2026-04-23 14:33 42.76503 19.17843 14567 ft 326 kts 194°
2026-04-23 14:33 42.74329 19.17018 14284 ft 323 kts 194°
2026-04-23 14:33 42.72161 19.16196 13929 ft 323 kts 194°
2026-04-23 14:33 42.69992 19.15375 13595 ft 322 kts 194°
2026-04-23 14:34 42.67853 19.14566 13339 ft 317 kts 194°
2026-04-23 14:34 42.65730 19.13764 12984 ft 317 kts 194°
2026-04-23 14:34 42.63612 19.12965 12690 ft 314 kts 194°
2026-04-23 14:34 42.61505 19.12169 12405 ft 313 kts 194°
2026-04-23 14:35 42.59416 19.11380 12088 ft 311 kts 194°
2026-04-23 14:35 42.57337 19.10597 11774 ft 309 kts 194°
2026-04-23 14:35 42.55278 19.09821 11509 ft 307 kts 194°
2026-04-23 14:35 42.53227 19.09049 11195 ft 306 kts 195°
2026-04-23 14:36 42.51182 19.08279 10922 ft 304 kts 194°
2026-04-23 14:36 42.49189 19.07530 10790 ft 297 kts 195°
2026-04-23 14:36 42.47219 19.06787 10640 ft 291 kts 195°
2026-04-23 14:36 42.45273 19.06057 10386 ft 289 kts 195°
2026-04-23 14:37 42.43332 19.05330 10138 ft 288 kts 195°
2026-04-23 14:37 42.41413 19.04611 9868 ft 287 kts 195°
2026-04-23 14:37 42.39487 19.03888 9571 ft 286 kts 195°
2026-04-23 14:37 42.37570 19.03169 9286 ft 285 kts 195°
2026-04-23 14:38 42.35665 19.02454 8969 ft 284 kts 195°
2026-04-23 14:38 42.33760 19.01743 8674 ft 284 kts 195°
2026-04-23 14:38 42.31860 19.01035 8408 ft 282 kts 195°
2026-04-23 14:38 42.29965 19.00326 8112 ft 283 kts 195°
2026-04-23 14:39 42.28074 18.99620 7886 ft 281 kts 195°
2026-04-23 14:39 42.26216 18.98926 7593 ft 282 kts 195°
2026-04-23 14:39 42.24306 18.98213 7382 ft 280 kts 195°
2026-04-23 14:39 42.22450 18.97524 7162 ft 280 kts 195°
2026-04-23 14:40 42.20582 18.96841 7039 ft 275 kts 194°
2026-04-23 14:40 42.18761 18.96162 6928 ft 268 kts 195°
2026-04-23 14:40 42.17067 18.95213 6808 ft 260 kts 218°
2026-04-23 14:40 42.15919 18.93423 6596 ft 252 kts 244°
2026-04-23 14:41 42.15467 18.91076 5822 ft 267 kts 271°
2026-04-23 14:41 42.15705 18.88627 5436 ft 258 kts 291°
2026-04-23 14:41 42.16576 18.86631 5181 ft 240 kts 317°
2026-04-23 14:41 42.17880 18.85341 4883 ft 229 kts 336°
2026-04-23 14:42 42.19319 18.84537 4595 ft 218 kts 341°
2026-04-23 14:42 42.20717 18.83843 4275 ft 210 kts 341°
2026-04-23 14:42 42.22060 18.83175 3994 ft 201 kts 341°
2026-04-23 14:42 42.23343 18.82528 3722 ft 192 kts 340°
2026-04-23 14:43 42.24573 18.81902 3433 ft 185 kts 339°
2026-04-23 14:43 42.25752 18.81297 3185 ft 177 kts 339°
2026-04-23 14:43 42.26894 18.80710 2939 ft 174 kts 338°
2026-04-23 14:43 42.28006 18.80138 2695 ft 169 kts 337°
2026-04-23 14:44 42.29084 18.79567 2447 ft 172 kts 336°
2026-04-23 14:44 42.30185 18.79071 2233 ft 161 kts 339°
2026-04-23 14:44 42.31170 18.78525 2057 ft 144 kts 332°
2026-04-23 14:44 42.32087 18.78020 1830 ft 141 kts 336°
2026-04-23 14:45 42.33010 18.77501 1622 ft 147 kts 336°
2026-04-23 14:45 42.33980 18.77007 1389 ft 149 kts 339°
2026-04-23 14:45 42.34935 18.76527 1180 ft 143 kts 339°
2026-04-23 14:45 42.35871 18.76052 1015 ft 146 kts 337°
2026-04-23 14:46 42.36820 18.75563 787 ft 145 kts 336°
2026-04-23 14:46 42.37742 18.75040 563 ft 143 kts 331°
2026-04-23 14:46 42.38602 18.74413 374 ft 139 kts 324°
2026-04-23 14:46 42.39368 18.73612 124 ft 139 kts 316°
2026-04-23 14:47 42.40077 18.72780 2 ft 126 kts 318°
2026-04-23 14:47 42.40577 18.72195 0 ft 63 kts 319°
2026-04-23 14:47 42.40793 18.71940 2 ft 28 kts 319°
2026-04-23 14:47 42.40903 18.71810 5 ft 17 kts 320°
2026-04-23 14:48 42.40972 18.71817 6 ft 8 kts 52°
2026-04-23 14:48 42.41016 18.71851 6 ft 8 kts 344°
2026-04-23 14:48 42.41062 18.71803 6 ft 9 kts 320°
2026-04-23 14:48 42.41115 18.71740 5 ft 11 kts 319°
2026-04-23 14:49 42.41167 18.71678 6 ft 9 kts 319°
2026-04-23 14:49 42.41213 18.71649 6 ft 3 kts 19°
2026-04-23 14:49 42.41225 18.71677 8 ft 4 kts 71°
2026-04-23 14:49 42.41217 18.71709 10 ft 2 kts 140°
2026-04-23 14:50 42.41199 18.71708 7 ft 3 kts 182°
2026-04-23 14:50 42.41197 18.71708 7 ft 0 kts 185°